Location: *
(49.6619°S, 177.4603°W)
Time: 13:45:56
(UTC+00:00)

Cosmos 468 Rocket - Visible Passes

Search period start: 25 September 2023 00:00
Search period end: 05 October 2023 00:00
Orbit: 744 x 777 km, 74.0° (Epoch: 24 September)

Date Brightness Start Highest point End Pass type
(mag) Time Alt. Az. Time Alt. Az. Time Alt. Az.
25 Sep 6.0 12:41:10 26° SSE 12:41:10 26° SSE 12:43:26 10° SSE visible
25 Sep 5.9 14:21:15 20° SW 14:21:15 20° SW 14:24:39 10° S visible
26 Sep 6.3 12:02:24 19° SE 12:02:24 19° SE 12:03:59 10° SSE visible
26 Sep 5.7 13:42:30 26° SSW 13:42:30 26° SSW 13:45:42 10° S visible
27 Sep 6.6 11:23:38 13° SE 11:23:38 13° SE 11:24:21 10° SE visible
27 Sep 5.7 13:03:43 29° S 13:03:43 29° S 13:06:35 10° SSE visible
27 Sep 6.4 14:43:48 11° SW 14:44:47 11° SW 14:46:33 10° SSW visible
28 Sep 5.9 12:24:55 27° SSE 12:24:55 27° SSE 12:27:21 10° SSE visible
28 Sep 6.1 14:05:00 16° SW 14:05:00 16° SW 14:08:13 10° S visible
29 Sep 6.1 11:46:06 22° SSE 11:46:06 22° SSE 11:48:00 10° SSE visible
29 Sep 5.9 13:26:11 22° SSW 13:26:11 22° SSW 13:29:23 10° S visible
30 Sep 6.4 11:07:15 17° SE 11:07:15 17° SE 11:08:28 10° SE visible
30 Sep 5.8 12:47:20 27° SSW 12:47:20 27° SSW 12:50:22 10° S visible
01 Oct 6.6 10:28:23 11° SE 10:28:23 11° SE 10:28:43 10° SE visible
01 Oct 5.8 12:08:28 29° S 12:08:28 29° S 12:11:12 10° SSE visible
01 Oct 6.4 13:48:33 13° SW 13:49:07 13° SW 13:51:36 10° S visible
02 Oct 5.9 11:29:35 27° SSE 11:29:35 27° SSE 11:31:55 10° SSE visible
02 Oct 6.1 13:09:39 19° SW 13:09:39 19° SW 13:13:00 10° S visible
03 Oct 6.0 10:50:39 22° SE 10:50:39 22° SE 10:52:31 10° SSE visible
03 Oct 5.9 12:30:44 25° SSW 12:30:44 25° SSW 12:34:05 10° S visible
04 Oct 6.2 10:11:43 16° SE 10:11:43 16° SE 10:12:55 10° SE visible
04 Oct 5.7 11:51:47 31° SSW 11:51:47 31° SSW 11:55:00 10° SSE visible
04 Oct 6.6 13:32:26 10° SW 13:33:25 10° SW 13:34:22 10° SSW visible
